Retour au catalogue

STARLINK-5712

ActifCommunicationsVLEO
NORAD 55615·PAYLOAD·🇺🇸 United States

Lancé Feb 12, 2023 depuis Cape Canaveral Space Force Station

Loading…

Prochains Passages (prochaines 24 heures)

TLE

FraisSource: CelesTrak SupGP

Époque: Sep 15, 2026, 02:58 UTC

1 55615C 23020AY  26258.12409722  .00011905  00000+0  43133-3 0  2589
2 55615  43.0019   4.0888 0001518 258.1161 135.0696 15.27563461    19

Suivez STARLINK-5712 en temps réel avec AllMySat

Download on the App Store